Вернуться в каталог

OPS 4682 DEB

АктивенPO
NORAD 51505·DEBRIS·🇺🇸 United States

Запущен Apr 3, 1965 с Vandenberg Space Force Base

Loading…

Ближайшие Пролёты (ближайшие 24 часа)

TLE

СвежийSource: Space-Track

Эпоха: Sep 13, 2026, 06:43 UTC

1 51505U 65027GR  26256.28017793 -.00000443  00000-0 -15160-2 0  9992
2 51505  90.2514  14.0277 0031870  94.7599 265.7163 12.98962515357487

Отслеживайте OPS 4682 DEB в реальном времени с AllMySat

Download on the App Store